Retour au catalogue

STARLINK-4174

ActifCommunicationsVLEO
NORAD 53276·PAYLOAD·🇺🇸 United States

Lancé Jul 24, 2022 depuis Cape Canaveral Space Force Station

Loading…

Prochains Passages (prochaines 24 heures)

TLE

FraisSource: CelesTrak SupGP

Époque: Sep 15, 2026, 02:27 UTC

1 53276C 22086AL  26258.10256944 -.00020588  00000+0 -60834-3 0  2581
2 53276  53.1599  38.6048 0001167  87.9191 318.7144 15.34397921    19

Suivez STARLINK-4174 en temps réel avec AllMySat

Download on the App Store